Mexia Limestone County Airpor, TX

2:01 PM CST on November 17, 2019 (GMT -0600)
Mexia-Limestone County

Weather History for KLXY - October, 2019

Change the Weather History Date:

Tuesday, October 22, 2019

  Actual Average (KACT) Record (KACT)
Temperature  
Mean Temperature 62 °F -  
Max Temperature 76 °F 76 °F 94 °F (1999)
Min Temperature 48 °F 55 °F 38 °F (1911)
Degree Days  
Heating Degree Days 3    
Growing Degree Days 12 (Base 50)    
Moisture  
Dew Point 38 °F    
Average Humidity 46    
Maximum Humidity 84    
Minimum Humidity 18    
Precipitation  
Precipitation 0.00 in - - ()
Sea Level Pressure  
Sea Level Pressure 30.15 in    
Wind  
Wind Speed 4 mph (North)    
Max Wind Speed 12 mph    
Max Gust Speed 16 mph    
Visibility 10 miles    
Events      
Averages and records for this station are not official NWS values.
T = Trace of Precipitation, MM = Missing Value Source: NWS Daily Summary

Daily Weather History Graph

Daily Weather History Graph

Search for Another Location

Airport or City:

Astronomy

Oct. 22, 2019 Rise Set
Actual Time 7:34 AM CDT 6:46 PM CDT
Civil Twilight 7:09 AM CDT 7:11 PM CDT
Nautical Twilight 6:40 AM CDT 7:39 PM CDT
Astronomical Twilight 6:12 AM CDT 8:07 PM CDT
Moon 1:15 AM CDT (10/22) 3:28 PM CDT (10/22)
Length of Visible Light 12h 01m
Length of Day
11h 12m
Last Quarter, 37% of the Moon is Illuminated
Oct 22
Last Quarter
Oct 27
New
Nov 4
First Quarter
Nov 12
Full
Nov 19
Last Quarter

Hourly Weather History & Observations

Time (CDT) Temp. Dew Point Humidity Pressure Visibility Wind Dir Wind Speed Gust Speed Precip Events Conditions
12:15 AM 56.1 °F 42.4 °F 60% 30.09 in 10.0 mi NNE 9.2 mph - N/A   Clear
12:35 AM 55.9 °F 42.6 °F 61% 30.09 in 10.0 mi NNE 8.1 mph - N/A   Clear
1:15 AM 53.4 °F 43.3 °F 69% 30.10 in 10.0 mi NNE 8.1 mph - N/A   Clear
1:35 AM 52.9 °F 43.3 °F 70% 30.09 in 10.0 mi West 5.8 mph - N/A   Clear
1:55 AM 52.2 °F 43.5 °F 72% 30.10 in 10.0 mi Calm Calm - N/A   Clear
2:15 AM 53.1 °F 42.4 °F 67% 30.10 in 10.0 mi Calm Calm - N/A   Clear
2:35 AM 51.4 °F 43.0 °F 73% 30.10 in 10.0 mi Calm Calm - N/A   Clear
2:55 AM 52.5 °F 43.3 °F 71% 30.10 in 10.0 mi Calm Calm - N/A   Clear
3:15 AM 50.4 °F 45.7 °F 84% 30.09 in 10.0 mi Calm Calm - N/A   Clear
3:35 AM 51.1 °F 45.7 °F 82% 30.09 in 10.0 mi Calm Calm - N/A   Clear
3:55 AM 53.2 °F 41.7 °F 65% 30.09 in 10.0 mi Calm Calm - N/A   Clear
4:15 AM 54.7 °F 39.4 °F 56% 30.09 in 10.0 mi Calm Calm - N/A   Clear
4:35 AM 52.2 °F 40.1 °F 64% 30.09 in 10.0 mi Calm Calm - N/A   Clear
4:55 AM 50.9 °F 41.0 °F 69% 30.10 in 10.0 mi Calm Calm - N/A   Clear
5:15 AM 48.7 °F 43.3 °F 82% 30.11 in 10.0 mi West 3.5 mph - N/A   Clear
5:35 AM 51.4 °F 42.1 °F 70% 30.12 in 10.0 mi Calm Calm - N/A   Clear
5:55 AM 50.9 °F 42.6 °F 73% 30.13 in 10.0 mi West 3.5 mph - N/A   Clear
6:15 AM 50.7 °F 43.3 °F 76% 30.14 in 10.0 mi West 3.5 mph - N/A   Clear
6:35 AM 52.2 °F 45.1 °F 77% 30.15 in 10.0 mi WNW 3.5 mph - N/A   Clear
6:55 AM 51.8 °F 42.6 °F 71% 30.16 in 10.0 mi NW 4.6 mph - N/A   Clear
7:15 AM 50.2 °F 41.9 °F 73% 30.17 in 10.0 mi NW 3.5 mph - N/A   Clear
7:35 AM 51.4 °F 41.0 °F 68% 30.17 in 10.0 mi NW 6.9 mph - N/A   Clear
7:55 AM 53.6 °F 41.0 °F 62% 30.18 in 10.0 mi NW 6.9 mph - N/A   Clear
8:15 AM 55.4 °F 40.6 °F 58% 30.19 in 10.0 mi NW 11.5 mph - N/A   Clear
8:35 AM 55.0 °F 43.0 °F 64% 30.22 in 10.0 mi NNW 8.1 mph - N/A   Clear
8:55 AM 55.6 °F 44.1 °F 65% 30.23 in 10.0 mi NNW 6.9 mph - N/A   Clear
9:15 AM 58.6 °F 41.9 °F 54% 30.24 in 10.0 mi North 6.9 mph - N/A   Clear
9:35 AM 61.0 °F 40.3 °F 46% 30.24 in 10.0 mi NNE 5.8 mph - N/A   Clear
9:55 AM 62.6 °F 39.9 °F 43% 30.25 in 10.0 mi NNE 8.1 mph - N/A   Clear
10:15 AM 65.1 °F 37.6 °F 36% 30.25 in 10.0 mi NE 6.9 mph - N/A   Clear
10:35 AM 65.7 °F 36.9 °F 35% 30.25 in 10.0 mi NNE 6.9 mph - N/A   Clear
10:55 AM 66.6 °F 36.9 °F 33% 30.25 in 10.0 mi NNE 8.1 mph - N/A   Clear
11:15 AM 67.5 °F 36.3 °F 32% 30.25 in 10.0 mi NNE 8.1 mph - N/A   Clear
11:35 AM 69.8 °F 36.9 °F 30% 30.25 in 10.0 mi NNE 10.4 mph 16.1 mph N/A   Clear
11:55 AM 71.1 °F 37.0 °F 29% 30.25 in 10.0 mi NE 9.2 mph - N/A   Clear
12:15 PM 72.5 °F 37.0 °F 27% 30.25 in 10.0 mi ENE 8.1 mph - N/A   Clear
12:35 PM 72.7 °F 32.7 °F 23% 30.25 in 10.0 mi NNE 5.8 mph - N/A   Clear
12:55 PM 73.2 °F 32.2 °F 22% 30.24 in 10.0 mi North 6.9 mph - N/A   Clear
1:15 PM 74.1 °F 30.6 °F 20% 30.22 in 10.0 mi North 3.5 mph - N/A   Clear
1:35 PM 74.5 °F 31.5 °F 21% 30.21 in 10.0 mi ENE 3.5 mph - N/A   Clear
1:55 PM 74.7 °F 29.3 °F 19% 30.20 in 10.0 mi NNW 5.8 mph - N/A   Clear
2:15 PM 74.7 °F 29.1 °F 19% 30.19 in 10.0 mi NNW 4.6 mph - N/A   Clear
2:35 PM 75.7 °F 30.6 °F 19% 30.17 in 10.0 mi NE 3.5 mph - N/A   Clear
2:55 PM 76.3 °F 30.2 °F 18% 30.17 in 10.0 mi ENE 5.8 mph - N/A   Clear
3:15 PM 75.7 °F 30.7 °F 19% 30.17 in 10.0 mi Calm Calm - N/A   Clear
3:35 PM 75.7 °F 30.9 °F 19% 30.16 in 10.0 mi Calm Calm - N/A   Clear
3:55 PM 75.6 °F 29.5 °F 18% 30.16 in 10.0 mi ENE 3.5 mph - N/A   Clear
4:15 PM 75.7 °F 29.5 °F 18% 30.15 in 10.0 mi North 3.5 mph - N/A   Clear
4:35 PM 75.4 °F 29.1 °F 18% 30.15 in 10.0 mi Calm Calm - N/A   Clear
4:55 PM 75.2 °F 29.3 °F 18% 30.14 in 10.0 mi Calm Calm - N/A   Clear
5:15 PM 75.4 °F 30.2 °F 19% 30.14 in 10.0 mi Calm Calm - N/A   Clear
5:35 PM 74.8 °F 30.2 °F 19% 30.14 in 10.0 mi Calm Calm - N/A   Clear
5:55 PM 74.1 °F 32.4 °F 22% 30.13 in 10.0 mi Calm Calm - N/A   Clear
6:15 PM 73.2 °F 33.3 °F 23% 30.13 in 10.0 mi Calm Calm - N/A   Clear
6:35 PM 70.5 °F 34.9 °F 27% 30.13 in 10.0 mi Calm Calm - N/A   Clear
6:55 PM 67.1 °F 38.5 °F 35% 30.13 in 10.0 mi Calm Calm - N/A   Clear
7:15 PM 65.3 °F 37.4 °F 36% 30.13 in 10.0 mi Calm Calm - N/A   Clear
7:35 PM 62.2 °F 39.9 °F 44% 30.13 in 10.0 mi Calm Calm - N/A   Clear
7:55 PM 62.4 °F 38.7 °F 41% 30.13 in 10.0 mi Calm Calm - N/A   Clear
8:15 PM 62.1 °F 38.5 °F 42% 30.13 in 10.0 mi Calm Calm - N/A   Clear
8:35 PM 60.3 °F 39.6 °F 46% 30.13 in 10.0 mi Calm Calm - N/A   Clear
8:55 PM 61.7 °F 36.9 °F 40% 30.13 in 5.0 mi Calm Calm - N/A   Haze
9:15 PM 61.0 °F 36.7 °F 40% 30.12 in 10.0 mi Calm Calm - N/A   Clear
9:35 PM 61.0 °F 35.2 °F 38% 30.12 in 10.0 mi East 3.5 mph - N/A   Clear
9:55 PM 60.4 °F 36.5 °F 41% 30.12 in 10.0 mi Calm Calm - N/A   Clear
10:15 PM 59.2 °F 37.8 °F 45% 30.12 in 10.0 mi ESE 3.5 mph - N/A   Clear
10:35 PM 58.1 °F 38.7 °F 48% 30.12 in 10.0 mi SSE 5.8 mph - N/A   Clear
10:55 PM 58.1 °F 39.2 °F 49% 30.12 in 10.0 mi South 6.9 mph - N/A   Clear
11:15 PM 57.4 °F 40.3 °F 53% 30.12 in 10.0 mi South 6.9 mph - N/A   Clear
11:35 PM 56.7 °F 40.1 °F 54% 30.11 in 10.0 mi South 6.9 mph - N/A   Clear
11:55 PM 56.7 °F 39.6 °F 53% 30.11 in 10.0 mi South 6.9 mph - N/A   Clear